Summerland, British Columbia

12:38 PM PST on January 21, 2018 (GMT -0800)
Summerland

Weather History for CWUS - February, 2013

Change the Weather History Date:

Thursday, February 21, 2013

  Actual Average (CYYF) Record (CYYF)
Temperature  
Mean Temperature 33 °F -  
Max Temperature 41 °F 39 °F 51 °F (2003)
Min Temperature 25 °F 25 °F 14 °F (2011)
Degree Days  
Heating Degree Days 32    
Moisture  
Dew Point 22 °F    
Average Humidity 65    
Maximum Humidity 78    
Minimum Humidity 47    
Precipitation  
Precipitation 0.00 in - - ()
Sea Level Pressure  
Sea Level Pressure 29.98 in    
Wind  
Wind Speed 5 mph ()    
Max Wind Speed 12 mph    
Max Gust Speed -    
Averages and records for this station are not official NWS values.
T = Trace of Precipitation, MM = Missing Value Source: Averaged Metar Reports

Daily Weather History Graph

Daily Weather History Graph

Search for Another Location

Airport or City:

Trip Planner

Search our weather history database for the weather conditions in past years. The results will help you decide how hot, cold, wet, or windy it might be!

Date:

Astronomy

Feb. 21, 2013 Rise Set
Actual Time 6:56 AM PST 5:28 PM PST
Civil Twilight 6:23 AM PST 6:01 PM PST
Nautical Twilight 5:46 AM PST 6:38 PM PST
Astronomical Twilight 5:09 AM PST 7:15 PM PST
Moon 1:33 PM PST 4:19 AM PST
Length of Visible Light 11h 37m
Length of Day
10h 32m
Waxing Gibbous, 84% of the Moon is Illuminated
Feb 21
Waxing Gibbous
Feb 25
Full
Mar 4
Last Quarter
Mar 11
New
Mar 19
First Quarter

Hourly Weather History & Observations

Time (PST) Temp. Windchill Dew Point Humidity Pressure Visibility Wind Dir Wind Speed Gust Speed Precip Events Conditions
12:00 AM 26.6 °F 22.6 °F 18.5 °F 71% 30.03 in - West 3.5 mph - N/A   Unknown
1:00 AM 25.9 °F 18.2 °F 17.6 °F 71% 30.03 in - WNW 6.9 mph - N/A   Unknown
2:00 AM 25.0 °F - 18.1 °F 75% 30.03 in - West 2.3 mph - N/A   Unknown
3:00 AM 27.9 °F 21.5 °F 17.4 °F 65% 30.01 in - West 5.8 mph - N/A   Unknown
4:00 AM 25 °F - 17 °F 62% 30.01 in - WNW 5.8 mph - -  
4:00 AM 25.2 °F 18.3 °F 17.2 °F 72% 30.01 in - WNW 5.8 mph - N/A   Unknown
5:00 AM 25.5 °F 18.7 °F 17.4 °F 71% 30.01 in - WNW 5.8 mph - N/A   Unknown
6:00 AM 25.5 °F 21.3 °F 18.1 °F 74% 30.01 in - WNW 3.5 mph - N/A   Unknown
7:00 AM 27.7 °F 21.3 °F 18.5 °F 68% 30.00 in - West 5.8 mph - N/A   Unknown
8:00 AM 28.8 °F 25.0 °F 20.5 °F 71% 30.01 in - WNW 3.5 mph - N/A   Unknown
9:00 AM 29.7 °F 26.1 °F 20.3 °F 68% 30.01 in - West 3.5 mph - N/A   Unknown
10:00 AM 34 °F - 21 °F 47% 29.99 in - North 3.5 mph - -  
10:00 AM 34.0 °F 31.0 °F 21.4 °F 60% 29.99 in - North 3.5 mph - N/A   Unknown
11:00 AM 35.1 °F 30.1 °F 22.6 °F 61% 29.99 in - East 5.8 mph - N/A   Unknown
12:00 PM 36.5 °F 31.0 °F 23.2 °F 59% 29.97 in - ESE 6.9 mph - N/A   Unknown
1:00 PM 37.9 °F 30.9 °F 24.3 °F 58% 29.96 in - ESE 10.4 mph - N/A   Unknown
2:00 PM 41.5 °F 37.1 °F 24.8 °F 51% 29.91 in - SE 6.9 mph - N/A   Unknown
3:00 PM 38.1 °F 31.7 °F 25.5 °F 61% 29.91 in - SE 9.2 mph - N/A   Unknown
4:00 PM 39 °F - 26 °F 47% 29.92 in - SE 11.5 mph - -  
4:00 PM 38.7 °F 31.4 °F 25.9 °F 60% 29.92 in - SE 11.5 mph - N/A   Unknown
5:00 PM 37.2 °F 33.6 °F 25.0 °F 61% 29.94 in - SE 4.6 mph - N/A   Unknown
6:00 PM 36.9 °F 30.7 °F 25.2 °F 63% 29.96 in - ESE 8.1 mph - N/A   Unknown
7:00 PM 35.8 °F 33.0 °F 25.7 °F 67% 29.95 in - South 3.5 mph - N/A   Unknown
8:00 PM 35.2 °F 32.4 °F 25.5 °F 68% 29.96 in - NNW 3.5 mph - N/A   Unknown
9:00 PM 34.2 °F 31.2 °F 25.7 °F 71% 29.96 in - NNW 3.5 mph - N/A   Unknown
10:00 PM 33 °F - 25 °F 64% 29.96 in - WNW 6.9 mph - -  
10:00 PM 31.5 °F 24.9 °F 25.3 °F 78% 29.96 in - WNW 6.9 mph - N/A   Unknown
11:00 PM 32.0 °F 25.6 °F 25.0 °F 75% 29.94 in - WNW 6.9 mph - N/A   Unknown